FW5910 Weather Reports


time (UTC)temp
C
wind
direction
speed
KPH
gust
KPH
rain 1hr
cm
rain 24hr
cm
rain mn
cm
humidity
%
barometer
mb
20260902184757 23 178 3.2 19.3 0.00 0.00 0.00 34 1006.2
20260902184257 23 105 4.8 22.5 0.00 0.00 0.00 35 1006.2
20260902183750 23 166 4.8 22.5 0.00 0.00 0.00 34 1006.3
20260902182752 23 114 4.8 16.1 0.00 0.00 0.00 37 1006.1
20260902182251 22 219 3.2 16.1 0.00 0.00 0.00 37 1006.0
20260902181251 22 182 4.8 12.9 0.00 0.00 0.00 38 1005.9
20260902180750 22 173 4.8 12.9 0.00 0.00 0.00 37 1005.9
20260902180251 22 81 6.4 19.3 0.00 0.00 0.00 37 1006.0
20260902175752 22 221 4.8 19.3 0.00 0.00 0.00 37 1005.9
20260902175251 22 0 4.8 12.9 0.00 0.00 0.00 38 1005.9
20260902174746 22 0 3.2 12.9 0.00 0.00 0.00 37 1006.0
20260902174246 22 0 3.2 9.7 0.00 0.00 0.00 37 1006.0
20260902173746 22 0 3.2 9.7 0.00 0.00 0.00 37 1005.9
20260902173246 21 0 3.2 12.9 0.00 0.00 0.00 40 1006.0
20260902172747 21 0 3.2 12.9 0.00 0.00 0.00 38 1005.9
20260902172248 21 0 3.2 8.0 0.00 0.00 0.00 39 1005.9
20260902171248 21 0 3.2 4.8 0.00 0.00 0.00 40 1006.0
20260902170747 21 0 1.6 4.8 0.00 0.00 0.00 40 1006.1
20260902170242 21 0 1.6 3.2 0.00 0.00 0.00 41 1006.0
20260902165743 21 0 1.6 3.2 0.00 0.00 0.00 43 1006.0
20260902165242 21 0 1.6 3.2 0.00 0.00 0.00 43 1006.0
20260902164742 21 0 1.6 4.8 0.00 0.00 0.00 44 1006.0
20260902164242 20 0 3.2 4.8 0.00 0.00 0.00 43 1005.9
20260902163242 21 0 1.6 4.8 0.00 0.00 0.00 42 1006.0
20260902162742 21 0 1.6 3.2 0.00 0.00 0.00 42 1006.0
20260902161743 20 113 3.2 4.8 0.00 0.00 0.00 45 1006.0
20260902161247 20 116 3.2 6.4 0.00 0.00 0.00 45 1006.1
20260902160246 20 114 4.8 9.7 0.00 0.00 0.00 46 1006.2
20260902155746 20 120 3.2 9.7 0.00 0.00 0.00 45 1006.2
20260902155243 20 107 1.6 6.4 0.00 0.00 0.00 45 1006.2
20260902154747 20 0 1.6 6.4 0.00 0.00 0.00 45 1006.1
20260902154245 19 0 0.0 3.2 0.00 0.00 0.00 46 1006.0
20260902153742 19 0 1.6 4.8 0.00 0.00 0.00 47 1006.1
20260902153242 18 0 1.6 6.4 0.00 0.00 0.00 46 1006.0
20260902152744 19 0 1.6 6.4 0.00 0.00 0.00 46 1005.9
20260902152246 19 0 1.6 4.8 0.00 0.00 0.00 47 1006.1
20260902151741 19 0 1.6 4.8 0.00 0.00 0.00 48 1006.2
20260902151242 19 0 0.0 4.8 0.00 0.00 0.00 49 1006.3
20260902150239 19 0 1.6 4.8 0.00 0.00 0.00 49 1006.6
20260902145738 18 0 0.0 4.8 0.00 0.00 0.00 49 1006.6
20260902145237 18 0 0.0 3.2 0.00 0.00 0.00 48 1006.7
20260902144736 18 0 1.6 4.8 0.00 0.00 0.00 47 1006.7
20260902144236 18 0 1.6 4.8 0.00 0.00 0.00 49 1006.7
20260902143736 18 30 0.0 3.2 0.00 0.00 0.00 49 1006.8
20260902143234 18 355 0.0 3.2 0.00 0.00 0.00 46 1006.7
20260902142734 18 355 0.0 1.6 0.00 0.00 0.00 48 1006.8
20260902142233 18 106 0.0 1.6 0.00 0.00 0.00 50 1006.7
20260902141733 18 121 0.0 1.6 0.00 0.00 0.00 51 1006.7
20260902141230 17 121 0.0 1.6 0.00 0.00 0.00 49 1006.7
20260902140734 17 121 1.6 4.8 0.00 0.00 0.00 49 1006.6
20260902140231 17 119 1.6 6.4 0.00 0.00 0.00 49 1006.5
20260902135734 17 119 3.2 6.4 0.00 0.00 0.00 50 1006.6
20260902134231 18 207 3.2 11.3 0.00 0.00 0.00 45 1006.6
20260902133733 18 229 4.8 14.5 0.00 0.00 0.00 45 1006.6
20260902133232 18 225 4.8 14.5 0.00 0.00 0.00 44 1006.5
20260902132732 18 0 3.2 11.3 0.00 0.00 0.00 44 1006.6
20260902131735 18 0 6.4 17.7 0.00 0.00 0.00 45 1006.7
20260902131231 18 0 6.4 19.3 0.00 0.00 0.00 45 1006.7
20260902130735 18 0 4.8 19.3 0.00 0.00 0.00 45 1006.8
20260902130234 18 0 6.4 24.1 0.00 0.00 0.00 45 1006.9
20260902125731 18 0 6.4 24.1 0.00 0.00 0.00 45 1007.1
20260902125231 18 0 6.4 16.1 0.00 0.00 0.00 45 1007.2
20260902124230 18 0 6.4 16.1 0.00 0.00 0.00 43 1007.1
20260902123732 18 0 6.4 20.9 0.00 0.00 0.00 43 1007.1
20260902123231 18 0 6.4 20.9 0.00 0.00 0.00 43 1007.1
20260902122735 18 0 6.4 16.1 0.00 0.00 0.00 42 1007.2
20260902122230 19 0 8.0 19.3 0.00 0.00 0.00 41 1007.2
20260902120734 18 0 4.8 9.7 0.00 0.00 0.00 42 1007.1
20260902120231 18 0 4.8 12.9 0.00 0.00 0.00 42 1007.1
20260902115731 18 0 4.8 20.9 0.00 0.00 0.00 42 1007.1
20260902115230 18 0 4.8 20.9 0.00 0.00 0.00 42 1007.2
20260902114732 18 0 6.4 19.3 0.00 0.00 0.00 43 1007.1
20260902114235 18 0 8.0 17.7 0.00 0.00 0.00 43 1007.2
20260902113731 18 0 8.0 16.1 0.00 0.00 0.00 44 1007.2
20260902112231 18 0 4.8 16.1 0.00 0.00 0.00 41 1007.3
20260902111732 18 0 4.8 14.5 0.00 0.00 0.00 42 1007.4
20260902111231 18 0 3.2 12.9 0.00 0.00 0.00 43 1007.7
20260902110731 18 0 3.2 12.9 0.00 0.00 0.00 43 1007.5
20260902110231 18 0 4.8 14.5 0.00 0.00 0.00 43 1007.7
20260902105230 18 0 4.8 9.7 0.00 0.00 0.00 42 1007.8
20260902104234 18 0 3.2 9.7 0.00 0.00 0.00 42 1007.5
20260902103731 19 0 3.2 9.7 0.00 0.00 0.00 45 1007.4
20260902103231 19 0 4.8 12.9 0.00 0.00 0.00 40 1007.4
20260902102731 20 0 4.8 14.5 0.00 0.00 0.00 39 1007.4
20260902102233 20 0 4.8 14.5 0.00 0.00 0.00 39 1007.5
20260902101731 20 0 6.4 16.1 0.00 0.00 0.00 39 1007.5
20260902101230 20 0 6.4 16.1 0.00 0.00 0.00 39 1007.5
20260902100732 20 0 6.4 16.1 0.00 0.00 0.00 39 1007.5
20260902100231 20 0 4.8 16.1 0.00 0.00 0.00 39 1007.7
20260902095732 20 0 4.8 9.7 0.00 0.00 0.00 39 1007.7
20260902095231 20 0 4.8 19.3 0.00 0.00 0.00 38 1007.7
20260902094738 20 0 6.4 19.3 0.00 0.00 0.00 38 1007.9
20260902094234 20 0 8.0 19.3 0.00 0.00 0.00 37 1008.0
20260902093731 20 0 6.4 17.7 0.00 0.00 0.00 38 1007.8
20260902093233 20 0 6.4 20.9 0.00 0.00 0.00 37 1007.9
20260902092231 20 0 6.4 20.9 0.00 0.00 0.00 39 1008.0
20260902091731 20 0 6.4 20.9 0.00 0.00 0.00 37 1008.2
20260902091230 20 0 4.8 16.1 0.00 0.00 0.00 36 1008.3
20260902090731 20 0 4.8 16.1 0.00 0.00 0.00 37 1008.2
20260902090230 20 0 4.8 14.5 0.00 0.00 0.00 37 1008.2
20260902085729 20 0 4.8 14.5 0.00 0.00 0.00 38 1008.3
20260902084717 20 0 4.8 9.7 0.00 0.00 0.00 38 1008.3
20260902083706 20 0 3.2 9.7 0.00 0.00 0.00 38 1008.5
20260902083205 20 0 4.8 17.7 0.00 0.00 0.00 38 1008.4
20260902082704 20 0 6.4 17.7 0.00 0.00 0.00 38 1008.5
20260902082205 20 0 8.0 17.7 0.00 0.00 0.00 37 1008.4
20260902081705 20 0 6.4 14.5 0.00 0.00 0.00 37 1008.4
20260902081204 20 0 4.8 9.7 0.00 0.00 0.00 36 1008.4
20260902080704 20 0 3.2 6.4 0.00 0.00 0.00 36 1008.2
20260902080205 20 0 1.6 6.4 0.00 0.00 0.00 36 1008.2
20260902075705 20 0 3.2 6.4 0.00 0.00 0.00 37 1008.2
20260902075206 20 0 1.6 4.8 0.00 0.00 0.00 40 1008.3
20260902074708 20 0 1.6 4.8 0.00 0.00 0.00 40 1008.1
20260902074208 19 0 1.6 4.8 0.00 0.00 0.00 40 1008.3
20260902073205 19 0 0.0 3.2 0.00 0.00 0.00 44 1008.4
20260902072204 20 0 1.6 4.8 0.00 0.00 0.00 45 1008.5
20260902071704 20 0 0.0 3.2 0.00 0.00 0.00 37 1008.6
20260902071203 20 0 1.6 6.4 0.00 0.00 0.00 38 1008.7
20260902070155 20 0 1.6 4.8 0.00 0.00 0.00 36 1008.7
20260902065141 21 0 1.6 6.4 0.00 0.00 0.00 35 1008.7
20260902064635 21 0 3.2 6.4 0.00 0.00 0.00 34 1008.6
20260902063635 21 0 3.2 8.0 0.00 0.00 0.00 33 1008.6
20260902061139 21 0 3.2 8.0 0.00 0.00 0.00 34 1008.7
20260902060633 21 0 3.2 8.0 0.00 0.00 0.00 34 1008.7
20260902055631 22 0 3.2 8.0 0.00 0.00 0.00 31 1008.5
20260902055131 22 0 4.8 8.0 0.00 0.00 0.00 32 1008.5
20260902054134 22 0 3.2 8.0 0.00 0.00 0.00 34 1008.5
20260902053630 22 0 3.2 6.4 0.00 0.00 0.00 34 1008.6
20260902052631 22 0 6.4 14.5 0.00 0.00 0.00 32 1009.1
20260902052133 22 0 4.8 14.5 0.00 0.00 0.00 34 1009.2
20260902051635 22 0 4.8 12.9 0.00 0.00 0.00 33 1009.4
20260902051131 22 0 4.8 12.9 0.00 0.00 0.00 32 1009.5
20260902050631 22 0 4.8 16.1 0.00 0.00 0.00 32 1009.5
20260902050133 22 0 4.8 16.1 0.00 0.00 0.00 32 1009.5
20260902045631 22 0 4.8 9.7 0.00 0.00 0.00 33 1009.5
20260902045131 22 0 4.8 14.5 0.00 0.00 0.00 33 1009.6
20260902044631 22 0 4.8 16.1 0.00 0.00 0.00 33 1009.6
20260902044131 22 0 4.8 16.1 0.00 0.00 0.00 32 1009.6
20260902043631 22 0 4.8 17.7 0.00 0.00 0.00 32 1009.6
20260902043133 22 0 6.4 17.7 0.00 0.00 0.00 33 1009.6
20260902041633 22 0 3.2 8.0 0.00 0.00 0.00 33 1009.6
20260902041137 22 0 3.2 8.0 0.00 0.00 0.00 31 1009.6
20260902040632 22 0 3.2 12.9 0.00 0.00 0.00 30 1009.6
20260902040132 22 0 1.6 12.9 0.00 0.00 0.00 29 1009.6
20260902035632 21 0 0.0 4.8 0.00 0.00 0.00 30 1009.5
20260902035134 21 0 0.0 4.8 0.00 0.00 0.00 31 1009.4
20260902034631 21 0 0.0 3.2 0.00 0.00 0.00 37 1009.4
20260902034130 21 0 0.0 3.2 0.00 0.00 0.00 33 1009.4
20260902033631 21 0 0.0 4.8 0.00 0.00 0.00 33 1009.5
20260902033130 21 0 1.6 6.4 0.00 0.00 0.00 35 1009.6
20260902032631 21 0 1.6 6.4 0.00 0.00 0.00 36 1009.5
20260902032132 21 0 1.6 4.8 0.00 0.00 0.00 38 1009.4
20260902031636 21 0 3.2 6.4 0.00 0.00 0.00 36 1009.5
20260902030133 22 0 1.6 6.4 0.00 0.00 0.00 35 1009.1
20260902025632 22 0 1.6 6.4 0.00 0.00 0.00 37 1009.0
20260902025132 23 0 1.6 6.4 0.00 0.00 0.00 30 1009.0
20260902024131 23 0 3.2 6.4 0.00 0.00 0.00 29 1008.5
20260902023131 23 0 4.8 19.3 0.00 0.00 0.00 30 1008.4
20260902022630 23 0 6.4 19.3 0.00 0.00 0.00 29 1008.3
20260902022134 22 0 3.2 8.0 0.00 0.00 0.00 33 1008.2
20260902021635 22 0 3.2 12.9 0.00 0.00 0.00 34 1007.9
20260902021131 22 0 4.8 12.9 0.00 0.00 0.00 38 1007.8
20260902020130 22 0 1.6 6.4 0.00 0.00 0.00 44 1007.4
20260902015631 22 219 0.0 4.8 0.00 0.00 0.00 42 1007.2
20260902015130 22 215 0.0 1.6 0.00 0.00 0.00 40 1006.9
20260902014631 23 215 1.6 6.4 0.00 0.00 0.00 37 1006.8
20260902013133 23 205 3.2 9.7 0.00 0.00 0.00 31 1006.8
20260902012130 23 212 3.2 9.7 0.00 0.00 0.00 33 1006.7
20260902011632 23 213 1.6 9.7 0.00 0.00 0.00 34 1006.6
20260902010631 23 192 3.2 6.4 0.00 0.00 0.00 34 1006.6
20260902010131 23 246 4.8 9.7 0.00 0.00 0.00 34 1006.5
20260902005631 23 242 4.8 9.7 0.00 0.00 0.00 35 1006.5
20260902004631 24 0 0.0 4.8 0.00 0.00 0.00 35 1006.5
20260902004132 25 0 1.6 4.8 0.00 0.00 0.00 34 1006.5
20260902003631 25 0 4.8 8.0 0.00 0.00 0.00 33 1006.5
20260902003133 25 0 6.4 12.9 0.00 0.00 0.00 32 1006.5
20260902002634 26 0 3.2 12.9 0.00 0.00 0.00 29 1006.3
20260902001633 26 332 0.0 0.0 0.00 0.00 0.00 22 1006.3
20260902001131 26 332 0.0 0.0 0.00 0.00 0.00 22 1006.5
20260902000632 27 332 0.0 0.0 0.00 0.00 0.00 28 1006.5
20260902000136 27 332 0.0 0.0 0.00 0.00 0.00 24 1006.5
20260901235633 27 332 0.0 0.0 0.00 0.00 0.00 19 1006.5
20260901235131 26 332 0.0 1.6 0.00 0.00 0.00 21 1006.6
20260901234631 26 332 0.0 3.2 0.00 0.00 0.00 21 1006.6
20260901234130 26 331 1.6 3.2 0.00 0.00 0.00 22 1006.7
20260901233129 27 332 3.2 6.4 0.00 0.00 0.00 19 1006.6
20260901232630 27 340 3.2 8.0 0.00 0.00 0.00 19 1006.7
20260901232128 27 329 3.2 8.0 0.00 0.00 0.00 19 1006.7
20260901231630 27 329 1.6 6.4 0.00 0.00 0.00 21 1006.7
20260901231129 27 11 1.6 6.4 0.00 0.00 0.00 18 1006.8
20260901230630 28 355 1.6 6.4 0.00 0.00 0.00 21 1006.9
20260901230130 28 27 1.6 6.4 0.00 0.00 0.00 17 1006.9
20260901225631 27 351 3.2 8.0 0.00 0.00 0.00 19 1006.9
20260901225133 27 340 3.2 8.0 0.00 0.00 0.00 19 1007.0
20260901224633 27 346 3.2 9.7 0.00 0.00 0.00 19 1007.1
20260901224131 27 355 3.2 12.9 0.00 0.00 0.00 18 1007.1
20260901223632 27 336 3.2 12.9 0.00 0.00 0.00 19 1007.3
20260901223130 27 10 3.2 9.7 0.00 0.00 0.00 21 1007.3
20260901222130 27 331 1.6 8.0 0.00 0.00 0.00 19 1007.4
20260901221626 28 341 1.6 8.0 0.00 0.00 0.00 18 1007.5
20260901221121 28 331 1.6 6.4 0.00 0.00 0.00 18 1007.5
20260901220616 28 23 3.2 6.4 0.00 0.00 0.00 21 1007.7
20260901220114 27 14 3.2 8.0 0.00 0.00 0.00 19 1007.5
20260901215115 27 355 3.2 6.4 0.00 0.00 0.00 19 1007.7
20260901214612 28 0 3.2 6.4 0.00 0.00 0.00 20 1007.7
20260901214113 28 336 1.6 4.8 0.00 0.00 0.00 20 1007.7
20260901213613 28 14 1.6 4.8 0.00 0.00 0.00 21 1007.8
20260901212612 28 355 1.6 3.2 0.00 0.00 0.00 22 1008.0
20260901212114 27 338 1.6 4.8 0.00 0.00 0.00 20 1008.1
20260901211614 27 343 1.6 4.8 0.00 0.00 0.00 20 1008.3
20260901211113 27 19 1.6 4.8 0.00 0.00 0.00 23 1008.4
20260901210611 27 348 1.6 4.8 0.00 0.00 0.00 21 1008.4
20260901210111 28 350 1.6 4.8 0.00 0.00 0.00 22 1008.5
20260901204612 27 68 1.6 4.8 0.00 0.00 0.00 24 1008.7
20260901204111 27 28 1.6 3.2 0.00 0.00 0.00 23 1008.9
20260901203612 26 0 1.6 3.2 0.00 0.00 0.00 23 1009.0
20260901203112 26 13 1.6 3.2 0.00 0.00 0.00 26 1009.1
20260901202607 26 0 1.6 3.2 0.00 0.00 0.00 24 1009.1
20260901201608 26 82 0.0 3.2 0.00 0.00 0.00 25 1009.3
20260901201107 26 82 0.0 4.8 0.00 0.00 0.00 27 1009.3
20260901200607 25 90 1.6 4.8 0.00 0.00 0.00 25 1009.3
20260901195607 25 35 1.6 3.2 0.00 0.00 0.00 29 1009.4
20260901195109 25 5 1.6 4.8 0.00 0.00 0.00 25 1009.4
20260901194103 25 0 0.0 3.2 0.00 0.00 0.00 29 1009.5
20260901193604 24 355 0.0 3.2 0.00 0.00 0.00 28 1009.6
20260901193103 24 350 1.6 3.2 0.00 0.00 0.00 28 1009.8
20260901192603 24 74 0.0 3.2 0.00 0.00 0.00 31 1010.0
20260901192102 23 76 1.6 3.2 0.00 0.00 0.00 29 1010.1
20260901191604 23 67 1.6 3.2 0.00 0.00 0.00 30 1010.1
20260901191103 23 62 1.6 3.2 0.00 0.00 0.00 31 1010.2
20260901190602 22 61 1.6 3.2 0.00 0.00 0.00 30 1010.3
20260901185602 22 87 1.6 4.8 0.00 0.00 0.00 32 1010.5